Preview of NWS' New Version of Forecast
This preview is not operational and should not be used for support decisions.

Regional Weather Roundup (RWR)

Issued by National Weather Service (NWS)

                            
000
ASUS46 KSEW 190110
RWRWA 

WASHINGTON REGIONAL WEATHER ROUNDUP
NATIONAL WEATHER SERVICE SEATTLE WA
500 PM PST MON FEB 18 2019

NOTE:"FAIR" INDICATES FEW OR NO CLOUDS BELOW 12,000 FEET WITH NO 
SIGNIFICANT WEATHER AND/OR OBSTRUCTIONS TO VISIBILITY.

WAZ507-509-555>559-190200-
SEATTLE, TACOMA, EVERETT, AND VICINITY
  
CITY           SKY/WX    TMP DP  RH WIND       PRES   REMARKS
EVERETT        CLOUDY    38  35  89 E5        30.34F                  
BOEING FIELD   CLOUDY    43  35  73 E3        30.36S                  
RENTON         CLOUDY    43  34  70 E3        30.35F                  
SEATAC AIRPORT MOCLDY    43  33  68 CALM      30.34S                  
JBLM-MCCHORD   MOCLDY    41  39  95 S5        30.34F                  
PUYALLUP       FAIR      43  36  75 CALM      30.34F                  
BREMERTON      MOCLDY    40  33  76 CALM      30.34S                  
JBLM-FT LEWIS  NOT AVBL                                               
TACOMA NARROWS MOCLDY    42  33  70 S3        30.34F                  
$$
 
WAZ001-503-506-510-514-515-190200-
NORTH INTERIOR
  
CITY           SKY/WX    TMP DP  RH WIND       PRES   REMARKS
BELLINGHAM     CLOUDY    34  22  61 N5        30.35F                  
FRIDAY HARBOR  CLOUDY    41  30  65 E3        30.36S                  
EASTSOUND      CLOUDY    39  30  70 VRB3      30.35S                  
PORT ANGELES   CLOUDY    39  32  76 E3        30.34F                  
EDIZ HOOK      CLOUDY    41  33  73 E3        30.35F                  
PORT TOWNSEND  CLOUDY    41  37  87 CALM      30.34F                  
NAS WHIDBEY    CLOUDY    43  32  65 E5        30.39F                  
ARLINGTON      CLOUDY    37  32  81 NE3       30.36F                  
BURLINGTON     CLOUDY    37  25  60 CALM      30.36F                  
$$
 
WAZ020-022-039-040-504-511-512-190200-
SOUTHWEST INTERIOR
  
CITY           SKY/WX    TMP DP  RH WIND       PRES   REMARKS
SHELTON        CLEAR     42  32  67 SW8       30.31S                  
OLYMPIA        MOCLDY    45  32  60 W5        30.34F                  
CHEHALIS       CLOUDY    43  39  87 CALM      30.35F                  
KELSO          CLOUDY    40  36  86 SE7       30.39S                  
VANCOUVER      LGT RAIN  43  32  65 CALM      30.38S                  
SCAPPOOSE, OR  CLOUDY    43  37  79 N3        30.38S                  
PORTLAND, OR   CLOUDY    44  31  60 CALM      30.39S                  
$$
 
WAZ021-516-517-190200-
WASHINGTON COAST
  
CITY           SKY/WX    TMP DP  RH WIND       PRES   REMARKS
FORKS          CLOUDY    42  33  70 W3        30.34S                  
HOQUIAM        PTCLDY    45  37  73 W7        30.35F                  
ASTORIA, OR    MOCLDY    44  39  82 CALM      30.37S                  
$$
 
WAZ019-023-024-040-567>569-190200-
CASCADE MOUNTAINS AND COLUMBIA GORGE
  
CITY           SKY/WX    TMP DP  RH WIND       PRES   REMARKS
STAMPEDE PASS  CLOUDY    26  23  88 VRB7      30.17F                  
TROUTDALE, OR  CLOUDY    44  32  62 NE3       30.39S                  
HOOD RIVER, OR CLOUDY    37  30  75 W3        30.33R                  
THE DALLES, OR MOCLDY    33  27  78 NE5       30.34S                  
$$

WAZ026-027-041>044-520-521-190200-
EAST SLOPES
  
CITY           SKY/WX    TMP DP  RH WIND       PRES   REMARKS
OMAK           CLEAR     27  13  55 CALM      30.29S                  
WENATCHEE      CLEAR     25  13  60 SE6       30.29F                  
ELLENSBURG     CLEAR     26  17  68 E10       30.24S WCI  16          
YAKIMA         CLEAR     28  20  71 CALM      30.30S                  
SUNNYSIDE ARPT CLEAR     31  24  75 E6        30.32                   
YAKIMA TC      FAIR      29  21  73 S6        30.26S                  
$$

WAZ028-034-035-190200-
COLUMBIA BASIN
  
CITY           SKY/WX    TMP DP  RH WIND       PRES   REMARKS
EPHRATA        CLEAR     25  13  60 CALM      30.30F                  
MOSES LAKE     CLEAR    N/A N/A N/A W5        30.31F                  
PASCO          CLOUDY    33  23  66 E3        30.36S                  
RICHLAND ARPT  CLOUDY    32  26  77 N3        30.36                   
HERMISTON, OR  CLOUDY    35  25  66 E5        30.32F                  
$$

WAZ036>038-190200-
NORTHEAST WASHINGTON
  
CITY           SKY/WX    TMP DP  RH WIND       PRES   REMARKS
SPOKANE GEIGER PTCLDY    18   8  65 W5        30.24F                  
SPOKANE FELTS  MOCLDY    25  10  53 SW5       30.27F                  
FAIRCHILD AFB  PTCLDY    19   7  61 W2        30.22F                  
COEURDALENE,ID CLOUDY    21   9  59 CALM      30.25F                  
DEER PARK      PTCLDY    20   8  60 SW6       30.25F                  
$$

WAZ029>033-190200-
SOUTHEAST WASHINGTON
  
CITY           SKY/WX    TMP DP  RH WIND       PRES   REMARKS
PULLMAN        CLOUDY    20  13  74 CALM      30.25F                  
LEWISTON, ID   CLOUDY    27  18  69 SE3       30.32S                  
WALLA WALLA    CLOUDY    31  23  72 CALM      30.31F                  
PENDLETON, OR  MOCLDY    31  24  75 E5        30.28F                  
$$